[[{"header":{"parameterUnit":"m.s-1","parameterCategory":1,"la1":30.2991,"la2":30.254,"lo1":-89.0895,"lo2":-89.0444,"dx":0.0017,"dy":0.0017,"nx":28,"ny":28,"refTime":"2022-11-30T15:00:00:Z","depth":0,"parameterNumber":2,"parameterNumberName":"U-component_of_WINDS"},"data":[0,0,0,0,0,0,0,0,0,0,0,0,0,0,0,0,0,0,0,0,0,0,0,0,0,0,0,0,0,0,0,0,0,0,0,0,0,0,0,0,0,0,0,0,0,0,0,0,0,0,0,0,0,0,0,0,0,0,-3.3023,-3.3024,0,-3.3102,-3.3103,-3.3104,-3.3006,-3.3003,-3.2999,-3.2996,-3.3079,-3.3084,-3.309,0,0,0,0,0,0,0,0,0,0,0,0,0,-3.2786,-3.2791,-3.3023,-3.3024,-3.3025,-3.3102,-3.3103,-3.3104,-3.3007,-3.3003,-3.2998,-3.2994,-3.3077,-3.3084,-3.309,0,0,0,0,0,0,0,0,0,0,0,0,0,-3.288,-3.2793,-3.3023,-3.2985,-3.2983,-3.3102,-3.3103,-3.3105,-3.3008,-3.3003,-3.2997,-3.2992,-3.3075,-3.3083,-3.3091,-3.3251,0,0,-3.3117,-3.312,0,0,0,0,0,0,0,0,-3.2875,-3.2888,-3.299,-3.2988,-3.2986,-3.3039,-3.305,-3.3154,-3.3009,-3.2999,-3.2996,-3.2989,-3.307,-3.3078,-3.3105,-3.3255,-3.3259,-3.3118,-3.3123,-3.3126,-3.3129,0,0,0,0,0,0,0,-3.2868,-3.2885,-3.3054,-3.2991,-3.2989,-3.2965,-3.2972,-3.3069,-3.3064,-3.2999,-3.2992,-3.3003,-3.3068,-3.3098,-3.3107,-3.326,-3.3117,-3.3125,-3.313,-3.3133,-3.3543,-3.3548,0,0,0,0,0,0,-3.2866,-3.288,-3.3052,-3.3057,-3.2916,-3.2973,-3.2982,-3.3027,-3.3062,-3.3063,-3.3007,-3.2998,-3.3086,-3.3097,-3.3109,-3.3298,-3.3126,-3.3134,-3.3139,-3.3537,-3.3544,-3.3551,0,0,0,0,0,0,-3.2861,-3.2882,-3.3048,-3.2966,-3.2986,-3.2983,-3.3035,-3.3032,-3.3061,-3.3069,-3.3067,-3.3039,-3.3082,-3.3097,-3.3216,-3.3299,-3.3138,-3.3145,-3.353,-3.3539,-3.3547,-3.3678,0,0,0,0,0,0,-3.2855,-3.2881,-3.2942,-3.2968,-3.299,-3.3155,-3.304,-3.3037,-3.3076,-3.3064,-3.3098,-3.3098,-3.3079,-3.3204,-3.3224,-3.3308,-3.3152,-3.3523,-3.3534,-3.3545,-3.3666,-3.369,-3.371,0,0,0,0,0,-3.2847,-3.2976,-3.2946,-3.2967,-3.3067,-3.316,-3.3172,-3.3147,-3.3083,-3.3144,-3.3148,-3.3097,-3.3287,-3.3217,-3.3239,-3.3327,-3.3517,-3.3531,-3.3544,-3.3656,-3.3685,-3.371,0,0,0,0,0,0,-3.2961,-3.2979,-3.2946,-3.3087,-3.3123,-3.3143,-3.322,-3.3179,-3.3234,-3.3221,-3.3188,-3.3196,-3.3323,-3.3336,-3.3258,-3.3482,-3.3391,-3.341,-3.3469,-3.3497,-3.3519,-3.3513,-3.3159,0,0,0,0,0,-3.3003,-3.3077,-3.3088,-3.3212,-3.3232,-3.3223,-3.3262,-3.324,-3.3275,-3.329,-3.3303,-3.334,-3.3407,-3.3452,-3.3515,-3.3667,-3.3672,-3.3737,-3.3759,-3.3778,-3.3794,-3.3874,-3.3903,-3.3594,-3.3594,-3.3594,0,0,-3.309,-3.3109,-3.3158,-3.3236,-3.326,-3.3338,-3.3236,-3.3323,-3.3379,-3.3303,-3.3416,-3.3427,-3.3465,-3.3601,-3.3661,-3.3616,-3.388,-3.3794,-3.3809,-3.3816,-3.3891,-3.392,-3.3946,-3.3603,-3.3601,-3.36,0,0,-3.3288,-3.331,-3.3415,-3.3441,-3.3479,-3.3472,-3.3497,-3.3523,-3.3527,-3.364,-3.3584,-3.365,-3.3768,-3.3797,-3.3828,-3.4034,-3.3989,-3.4055,-3.4172,-3.425,-3.4275,-3.4296,-3.437,-3.4396,-3.4072,-3.4072,-3.4072,0,-3.3391,-3.3505,-3.3474,-3.3564,-3.36,-3.3533,-3.3639,-3.3666,-3.3723,-3.3749,-3.3697,-3.3842,-3.3863,-3.4004,-3.4054,-3.4081,-3.4109,-3.4052,-3.4273,-3.4295,-3.4314,-3.4384,-3.4412,-3.408,-3.4079,-3.4078,-3.4077,0,-3.3631,-3.371,-3.3791,-3.3846,-3.3891,-3.3989,-3.3972,-3.4021,-3.3994,-3.3992,-3.4106,-3.4129,-3.4194,-3.4226,-3.4201,-3.4363,-3.4334,-3.4279,-3.4187,-3.4352,-3.4417,-3.4444,-3.4091,-3.4088,-3.4086,-3.4084,0,0,-3.3905,-3.3941,-3.3971,-3.3994,-3.403,-3.4091,-3.4185,-3.4248,-3.4291,-3.4332,-3.441,-3.4509,-3.4457,-3.4492,-3.4469,-3.4538,-3.4699,-3.4474,-3.4474,-3.4515,-3.4879,-3.4921,-3.4953,-3.4669,-3.4674,-3.4678,-3.4876,0,-3.4104,-3.4266,-3.424,-3.4397,-3.447,-3.4406,-3.4487,-3.4518,-3.4518,-3.458,-3.458,-3.4651,-3.4578,-3.4598,-3.4663,-3.4666,-3.4772,-3.4651,-3.4741,-3.4745,-3.4734,-3.4987,-3.5032,-3.5218,-3.4901,-3.4905,-3.4908,0,-3.4357,-3.4406,-3.4571,-3.4593,-3.4623,-3.4697,-3.4752,-3.4811,-3.4844,-3.4839,-3.4877,-3.4841,-3.4934,-3.484,-3.4967,-3.4886,-3.492,-3.4927,-3.4934,-3.4942,-3.4838,-3.5002,-3.5277,-3.5305,-3.4948,-3.4945,-3.4942,0,-3.4541,-3.4648,-3.476,-3.4782,-3.4812,-3.4865,-3.488,-3.4907,-3.4946,-3.4994,-3.5019,-3.5077,-3.511,-3.5155,-3.5136,-3.5069,-3.5267,-3.5171,-3.5266,-3.5267,-3.5312,-3.5309,-3.5596,-3.5333,-3.5333,-3.5332,-3.5332,0,-3.4766,-3.4869,-3.4843,-3.4912,-3.5025,-3.4993,-3.5106,-3.5113,-3.5137,-3.5206,-3.5154,-3.522,-3.5189,-3.5253,-3.5238,-3.5346,-3.5361,-3.5359,-3.5354,-3.5365,-3.5365,-3.5388,-3.5375,-3.534,-3.5338,-3.5337,-3.5335,0,-3.4991,-3.4978,-3.5095,-3.5113,-3.5119,-3.5202,-3.5217,-3.5281,-3.5276,-3.5364,-3.5383,-3.5376,-3.5447,-3.5432,-3.5511,-3.5501,-3.5636,-3.5614,-3.5625,-3.562,-3.5715,-3.5707,-3.6028,-3.6068,-3.5779,-3.5782,-3.5784,0,-3.5136,-3.5214,-3.5239,-3.5281,-3.5299,-3.5368,-3.5407,-3.5378,-3.5421,-3.5463,-3.5522,-3.5589,-3.5641,-3.5758,-3.576,-3.582,-3.58,-3.5908,-3.5809,-3.5816,-3.5802,-3.5798,-3.5805,-3.5929,-3.5932,-3.5934,-3.5937,0,-3.5395,-3.5383,-3.5441,-3.5497,-3.5545,-3.5588,-3.5625,-3.5663,-3.5636,-3.5687,-3.5759,-3.58,-3.5879,-3.5946,-3.6001,-3.6016,-3.5973,-3.5968,-3.5993,-3.6004,-3.6007,-3.6007,-3.5679,-3.5961,-3.5958,-3.5957,-3.5955,-3.5954,-3.5584,-3.565,-3.5677,-3.5743,-3.5768,-3.5804,-3.5865,-3.5867,-3.5926,-3.5988,-3.5967,-3.605,-3.6079,-3.6148,-3.6169,-3.6233,-3.6192,-3.6229,-3.6238,-3.6247,-3.6259,-3.5996,-3.6243,-3.6242,-3.6241,-3.6241,-3.624,0,-3.584,-3.5854,-3.5915,-3.5968,-3.602,-3.5973,-3.6011,-3.6058,-3.6131,-3.6162,-3.6213,-3.6296,-3.636,-3.6366,-3.6426,-3.6476,-3.6457,-3.6493,-3.6489,-3.6493,-3.6292,-3.6264,-3.6507,-3.6507,-3.6507,-3.6507,-3.6506,-3.6506,-3.5979,-3.6087,-3.6079,-3.6198,-3.6211,-3.6291,-3.6317,-3.6349,-3.6373,-3.6467,-3.652,-3.6523,-3.6544,-3.6605,-3.6661,-3.6661,-3.6686,-3.6729,-3.6722,-3.6534,-3.6508,-3.6482,-3.6456,-3.6735,-3.6735,-3.6917,-3.6919,-3.692]},{"header":{"parameterUnit":"m.s-1","parameterCategory":1,"la1":30.2991,"la2":30.254,"lo1":-89.0895,"lo2":-89.0444,"dx":0.0017,"dy":0.0017,"nx":28,"ny":28,"refTime":"2022-11-30T15:00:00:Z","depth":0,"parameterNumber":3,"parameterNumberName":"V-component_of_WINDS"},"data":[0,0,0,0,0,0,0,0,0,0,0,0,0,0,0,0,0,0,0,0,0,0,0,0,0,0,0,0,0,0,0,0,0,0,0,0,0,0,0,0,0,0,0,0,0,0,0,0,0,0,0,0,0,0,0,0,0,0,-3.8097,-3.8098,0,-3.8191,-3.8192,-3.8193,-3.8166,-3.8164,-3.8162,-3.816,-3.8254,-3.8258,-3.8262,0,0,0,0,0,0,0,0,0,0,0,0,0,-3.7889,-3.7893,-3.8097,-3.8098,-3.8099,-3.8191,-3.8192,-3.8193,-3.8166,-3.8164,-3.8162,-3.8159,-3.8252,-3.8257,-3.8263,0,0,0,0,0,0,0,0,0,0,0,0,0,-3.7981,-3.7894,-3.8096,-3.8097,-3.8098,-3.819,-3.8192,-3.8193,-3.8167,-3.8164,-3.8161,-3.8158,-3.8251,-3.8257,-3.8263,-3.8361,0,0,-3.8283,-3.8286,0,0,0,0,0,0,0,0,-3.7975,-3.7988,-3.8095,-3.8097,-3.8098,-3.8164,-3.8153,-3.8249,-3.8168,-3.814,-3.816,-3.8157,-3.8226,-3.8234,-3.8258,-3.8365,-3.8369,-3.8284,-3.8287,-3.829,-3.8292,0,0,0,0,0,0,0,-3.7969,-3.7984,-3.8134,-3.8097,-3.8099,-3.8091,-3.81,-3.8171,-3.8198,-3.8143,-3.8141,-3.8153,-3.8226,-3.8252,-3.826,-3.837,-3.8283,-3.8289,-3.8293,-3.8296,-3.8558,-3.8561,0,0,0,0,0,0,-3.7962,-3.7979,-3.8131,-3.8137,-3.8029,-3.8097,-3.8108,-3.8146,-3.8197,-3.8203,-3.8155,-3.8151,-3.8242,-3.8253,-3.8263,-3.8378,-3.829,-3.8296,-3.83,-3.8555,-3.8559,-3.8562,0,0,0,0,0,0,-3.7958,-3.7976,-3.8127,-3.8057,-3.8076,-3.8103,-3.8146,-3.8149,-3.8175,-3.8207,-3.8211,-3.8177,-3.8241,-3.8254,-3.8336,-3.8381,-3.8299,-3.8305,-3.8551,-3.8556,-3.8561,-3.8611,0,0,0,0,0,0,-3.7952,-3.7975,-3.8013,-3.8058,-3.808,-3.82,-3.8149,-3.8153,-3.8186,-3.8182,-3.8228,-3.8233,-3.8239,-3.8327,-3.8342,-3.8389,-3.831,-3.8547,-3.8554,-3.8559,-3.8605,-3.8617,-3.8627,0,0,0,0,0,-3.7945,-3.8024,-3.8015,-3.8034,-3.8129,-3.8202,-3.8214,-3.8221,-3.819,-3.8228,-3.8248,-3.8232,-3.8374,-3.8335,-3.8353,-3.8402,-3.8545,-3.8552,-3.8559,-3.8601,-3.8614,-3.8626,0,0,0,0,0,0,-3.7983,-3.803,-3.8021,-3.8117,-3.8156,-3.8198,-3.8246,-3.8236,-3.8284,-3.8278,-3.8283,-3.8293,-3.8376,-3.8397,-3.8353,-3.8497,-3.8455,-3.8465,-3.848,-3.8494,-3.8504,-3.8497,-3.8315,0,0,0,0,0,-3.8002,-3.806,-3.8097,-3.8178,-3.8198,-3.8219,-3.8251,-3.8253,-3.8293,-3.8309,-3.8335,-3.8373,-3.8426,-3.8461,-3.8512,-3.8608,-3.8616,-3.865,-3.8661,-3.8669,-3.8678,-3.8728,-3.8743,-3.8585,-3.8585,-3.8585,0,0,-3.8043,-3.8076,-3.8112,-3.8187,-3.8217,-3.8274,-3.8233,-3.8296,-3.8338,-3.8318,-3.8397,-3.8417,-3.846,-3.8549,-3.8589,-3.8569,-3.8724,-3.8678,-3.8685,-3.8689,-3.8737,-3.8751,-3.8765,-3.859,-3.8589,-3.8589,0,0,-3.8147,-3.8179,-3.8248,-3.8279,-3.8326,-3.8339,-3.8355,-3.8398,-3.8411,-3.849,-3.8476,-3.8525,-3.8617,-3.8648,-3.8675,-3.8788,-3.8774,-3.8805,-3.886,-3.8908,-3.892,-3.8931,-3.8969,-3.8983,-3.8814,-3.8814,-3.8814,0,-3.8192,-3.8279,-3.8285,-3.8349,-3.8381,-3.8366,-3.8436,-3.8465,-3.8525,-3.8547,-3.8524,-3.8637,-3.8666,-3.876,-3.8787,-3.8811,-3.8828,-3.8799,-3.8918,-3.8929,-3.8939,-3.8976,-3.899,-3.8817,-3.8817,-3.8816,-3.8816,0,-3.833,-3.8391,-3.8442,-3.85,-3.8538,-3.8605,-3.8619,-3.8656,-3.8654,-3.8669,-3.8748,-3.8781,-3.8837,-3.8859,-3.8858,-3.8953,-3.8938,-3.8917,-3.8874,-3.8958,-3.8991,-3.9006,-3.8822,-3.8821,-3.882,-3.8819,0,0,-3.8461,-3.8522,-3.854,-3.8565,-3.8614,-3.866,-3.8725,-3.878,-3.8811,-3.8853,-3.8905,-3.8983,-3.8962,-3.8993,-3.8995,-3.9037,-3.9122,-3.901,-3.9011,-3.9028,-3.9225,-3.924,-3.9256,-3.9113,-3.9115,-3.9118,-3.9221,0,-3.8568,-3.8682,-3.8689,-3.8792,-3.8846,-3.8832,-3.8887,-3.8922,-3.8938,-3.8984,-3.9,-3.9054,-3.9025,-3.9043,-3.9084,-3.9103,-3.9161,-3.9095,-3.916,-3.9162,-3.9148,-3.9274,-3.9291,-3.9387,-3.9234,-3.9237,-3.9238,0,-3.8707,-3.8753,-3.8862,-3.8901,-3.8924,-3.8974,-3.9024,-3.907,-3.9108,-3.9116,-3.915,-3.9145,-3.9209,-3.9164,-3.9251,-3.9206,-3.9233,-3.9245,-3.9249,-3.9254,-3.9204,-3.9281,-3.9418,-3.9431,-3.926,-3.9258,-3.9256,0,-3.8789,-3.8878,-3.8954,-3.8976,-3.9024,-3.9059,-3.9081,-3.9117,-3.9149,-3.9192,-3.9212,-3.9262,-3.9289,-3.9327,-3.9335,-3.9302,-3.942,-3.9377,-3.9427,-3.9426,-3.9451,-3.9449,-3.9592,-3.9471,-3.9471,-3.9471,-3.9471,0,-3.8906,-3.8973,-3.8991,-3.9037,-3.911,-3.9116,-3.9188,-3.9207,-3.9238,-3.9287,-3.9277,-3.9322,-3.9331,-3.9377,-3.9384,-3.9453,-3.9466,-3.9472,-3.9472,-3.9472,-3.9471,-3.9488,-3.9481,-3.9475,-3.9474,-3.9473,-3.9473,0,-3.901,-3.9025,-3.9106,-3.9145,-3.9156,-3.9208,-3.924,-3.9283,-3.9297,-3.9358,-3.9372,-3.9393,-3.9447,-3.9459,-3.9523,-3.9527,-3.9608,-3.9603,-3.9596,-3.9595,-3.9642,-3.9637,-3.98,-3.9821,-3.9688,-3.9689,-3.9691,0,-3.9083,-3.9133,-3.9177,-3.9209,-3.9232,-3.9284,-3.9316,-3.9324,-3.9357,-3.9404,-3.9441,-3.9494,-3.9537,-3.9623,-3.9643,-3.9691,-3.9686,-3.974,-3.9693,-3.969,-3.9684,-3.9681,-3.9685,-3.9749,-3.975,-3.9751,-3.9752,0,-3.921,-3.9214,-3.9262,-3.9312,-3.9351,-3.939,-3.9428,-3.9454,-3.9466,-3.9504,-3.9559,-3.9592,-3.9657,-3.9709,-3.9757,-3.9777,-3.9766,-3.9767,-3.978,-3.9779,-3.9772,-3.9774,-3.9618,-3.9763,-3.9762,-3.9761,-3.976,-3.976,-3.9299,-3.9342,-3.9379,-3.9432,-3.9461,-3.9496,-3.9538,-3.9556,-3.9602,-3.9656,-3.9657,-3.9717,-3.9751,-3.9815,-3.9838,-3.9883,-3.9866,-3.9887,-3.9891,-3.9896,-3.9899,-3.9766,-3.9892,-3.9892,-3.9892,-3.9892,-3.9891,0,-3.9424,-3.9447,-3.9495,-3.9547,-3.9588,-3.9575,-3.9615,-3.9649,-3.9702,-3.9736,-3.9778,-3.984,-3.989,-3.9913,-3.9962,-3.9994,-3.999,-4.0006,-4.0003,-4.0007,-3.9913,-3.9895,-4.0008,-4.0008,-4.0008,-4.0008,-4.0008,-4.0008,-3.9493,-3.9565,-3.9574,-3.9659,-3.9681,-3.974,-3.9763,-3.9794,-3.9821,-3.9891,-3.9933,-3.9948,-3.9976,-4.0027,-4.0071,-4.0076,-4.0094,-4.0112,-4.0115,-4.0026,-4.0014,-4.0003,-3.9986,-4.0117,-4.0117,-4.0205,-4.0206,-4.0207]}]]